sat.trackr.live / text

‹ back to catalog

STARLINK-32163

NORAD 60262 · 2024-131H

PAYLOAD ACTIVE UNKNOWN

§ Identity

Operator
Country
US
Launch date
2024-07-27
Launch site
AFETR
Launch vehicle
Mass (kg)
RCS (m²)

Purposes: comms

External: N2YO · Heavens-Above · Gunter

§ Orbital elements

Epoch: 2026-09-21T21:43:47.119008Z

Period
94.01 min
Inclination
53.1601°
Eccentricity
0.0001263
Mean motion
15.31695256 rev/d
Perigee alt
469.9 km
Apogee alt
471.6 km
Semi-major
6,848.9 km
B*
7.4774e-6
RAAN
219.3604°
Arg perigee
87.3064°
Mean anomaly
272.8082°
Rev number
12,178

§ Raw data

STARLINK-321631 60262U 24131H   26264.90540647 -.00000133  00000+0  74774-5 0  99932 60262  53.1601 219.3604 0001263  87.3064 272.8082 15.31695256121780

JSON: /api/v1/satellites/60262 · /tle

For live sub-satellite position, see the globe view (requires WebGL).

§ Visibility from observer

Set your observer location to see the next 7 days of passes ≥ 10°. The values pass through the URL so the page stays shareable.

No JS? Fill the form by hand. The geolocation button needs JavaScript.